GSAT0202 (GALILEO 6)

Last updated on Tue Jul 01 2025 00:02:33 GMT+0000 (Coordinated Universal Time)

1 40129U 14050B 25181.17632946 -.00000092 00000+0 00000+0 0 9991 2 40129 49.2740 286.8808 1633872 166.6470 198.3009 1.85520458 73956
UTC large
Height (km)
Speed (km/s)
/
Latitude / Longitude
Inclination (degrees)
Orbital Period (minutes)
Azimuth
Elevation
Range (km)
Doppler Factor

Next 0 passes for location: London (51.5072 / 0.1276)

Sorry there are no passes over London.